When you browse on this site, cookies collect data to enhance your experience and personalize the content and advertising you see.
Visit our Privacy Policy to learn more. By continuing to use the site, you agree to this use of cookies and data.
  • Em Portugal
  • Lista de países
  • Para 7 dias
  • Temperatura da água
  • Mapa do tempo
  • Widgets de tempo
  • user-avatar
    Iniciar Sessão

    Previsão horária em Jalalabad

    Hoje, 27 Maio, Quarta-feira

    Tempo Temperatura Precipitação Vento Pressão Humidade
    00:00 +34°C° 0 mm 3 m/s 707 mmHg 21%
    01:00 +33°C° 0 mm 3 m/s 707 mmHg 23%
    02:00 +31°C° 0 mm 3 m/s 706 mmHg 24%
    03:00 +30°C° 0 mm 3 m/s 706 mmHg 24%
    04:00 +30°C° 0 mm 3 m/s 706 mmHg 25%
    05:00 +29°C° 0 mm 3 m/s 705 mmHg 25%
    06:00 +32°C° 0 mm 4 m/s 706 mmHg 23%
    07:00 +33°C° 0 mm 4 m/s 706 mmHg 21%
    08:00 +35°C° 0 mm 5 m/s 707 mmHg 18%
    09:00 +36°C° 0 mm 5 m/s 707 mmHg 16%
    10:00 +39°C° 0 mm 6 m/s 707 mmHg 14%
    11:00 +40°C° 0 mm 6 m/s 707 mmHg 13%
    12:00 +41°C° 0 mm 6 m/s 706 mmHg 11%
    13:00 +42°C° 0 mm 6 m/s 706 mmHg 10%
    14:00 +43°C° 0 mm 5 m/s 705 mmHg 9%
    15:00 +43°C° 0 mm 5 m/s 705 mmHg 10%
    16:00 +43°C° 0 mm 5 m/s 705 mmHg 10%
    17:00 +42°C° 0 mm 5 m/s 705 mmHg 10%
    18:00 +40°C° 0 mm 4 m/s 705 mmHg 15%
    19:00 +37°C° 0 mm 3 m/s 705 mmHg 19%
    20:00 +35°C° 0 mm 2 m/s 705 mmHg 23%
    21:00 +35°C° 0 mm 3 m/s 705 mmHg 23%
    22:00 +34°C° 0 mm 3 m/s 705 mmHg 23%
    23:00 +33°C° 0 mm 4 m/s 705 mmHg 24%

    Amanhã, 28 Maio, Quinta-feira

    Tempo Temperatura Precipitação Vento Pressão Humidade
    00:00 +33°C° 0 mm 4 m/s 705 mmHg 24%
    01:00 +32°C° 0 mm 4 m/s 705 mmHg 25%
    02:00 +30°C° 0 mm 3 m/s 705 mmHg 25%
    03:00 +30°C° 0 mm 3 m/s 704 mmHg 26%
    04:00 +29°C° 0 mm 3 m/s 704 mmHg 27%
    05:00 +29°C° 0 mm 3 m/s 704 mmHg 29%
    06:00 +30°C° 0 mm 3 m/s 704 mmHg 26%
    07:00 +33°C° 0 mm 3 m/s 705 mmHg 23%
    08:00 +34°C° 0 mm 4 m/s 705 mmHg 20%
    09:00 +36°C° 0 mm 4 m/s 705 mmHg 18%
    10:00 +37°C° 0 mm 4 m/s 705 mmHg 17%
    11:00 +40°C° 0 mm 5 m/s 705 mmHg 15%
    12:00 +40°C° 0 mm 5 m/s 705 mmHg 14%
    13:00 +41°C° 0 mm 6 m/s 704 mmHg 13%
    14:00 +42°C° 0 mm 6 m/s 704 mmHg 12%
    15:00 +41°C° 0 mm 6 m/s 704 mmHg 14%
    16:00 +40°C° 0 mm 6 m/s 704 mmHg 17%
    17:00 +38°C° 0 mm 6 m/s 704 mmHg 19%
    18:00 +37°C° 0 mm 5 m/s 704 mmHg 20%
    19:00 +36°C° 0 mm 4 m/s 704 mmHg 21%
    20:00 +35°C° 0 mm 3 m/s 705 mmHg 22%
    21:00 +34°C° 0 mm 3 m/s 705 mmHg 24%
    22:00 +34°C° 0 mm 3 m/s 705 mmHg 25%
    23:00 +33°C° 0 mm 3 m/s 705 mmHg 26%

    Depois de amanhã, 29 Maio, Sexta-feira

    Tempo Temperatura Precipitação Vento Pressão Humidade
    00:00 +33°C° 0 mm 3 m/s 705 mmHg 27%
    01:00 +31°C° 0 mm 3 m/s 705 mmHg 28%
    02:00 +31°C° 0 mm 2 m/s 704 mmHg 30%
    03:00 +30°C° 0 mm 2 m/s 704 mmHg 30%
    04:00 +30°C° 0 mm 2 m/s 704 mmHg 31%
    05:00 +30°C° 0 mm 2 m/s 704 mmHg 31%
    06:00 +31°C° 0 mm 2 m/s 704 mmHg 29%
    07:00 +32°C° 0 mm 2 m/s 705 mmHg 27%
    08:00 +34°C° 0 mm 2 m/s 705 mmHg 25%
    09:00 +36°C° 0 mm 2 m/s 705 mmHg 22%
    10:00 +37°C° 0 mm 3 m/s 706 mmHg 20%
    11:00 +38°C° 0 mm 3 m/s 706 mmHg 17%
    12:00 +39°C° 0.1 mm 5 m/s 706 mmHg 19%
    13:00 +39°C° 0.1 mm 7 m/s 706 mmHg 20%
    14:00 +39°C° 0.1 mm 9 m/s 706 mmHg 22%
    15:00 +39°C° 0 mm 7 m/s 705 mmHg 21%
    16:00 +39°C° 0 mm 6 m/s 705 mmHg 20%
    17:00 +38°C° 0 mm 4 m/s 705 mmHg 20%
    18:00 +37°C° 0 mm 4 m/s 706 mmHg 23%
    19:00 +35°C° 0 mm 5 m/s 706 mmHg 26%
    20:00 +34°C° 0 mm 5 m/s 706 mmHg 29%
    21:00 +33°C° 0.1 mm 4 m/s 706 mmHg 31%
    22:00 +33°C° 0.1 mm 3 m/s 706 mmHg 33%
    23:00 +31°C° 0.1 mm 2 m/s 706 mmHg 35%

    30 Maio, Sábado

    Tempo Temperatura Precipitação Vento Pressão Humidade
    00:00 +31°C° 0 mm 2 m/s 706 mmHg 36%
    01:00 +30°C° 0 mm 1 m/s 706 mmHg 38%
    02:00 +30°C° 0 mm 1 m/s 705 mmHg 39%
    03:00 +29°C° 0 mm 1 m/s 705 mmHg 40%
    04:00 +29°C° 0 mm 1 m/s 705 mmHg 42%
    05:00 +26°C° 0 mm 0 m/s 705 mmHg 43%
    06:00 +27°C° 0 mm 0 m/s 706 mmHg 40%
    07:00 +30°C° 0 mm 1 m/s 707 mmHg 36%
    08:00 +31°C° 0 mm 1 m/s 707 mmHg 33%
    09:00 +32°C° 0 mm 1 m/s 708 mmHg 31%
    10:00 +33°C° 0 mm 1 m/s 708 mmHg 29%
    11:00 +34°C° 0 mm 1 m/s 708 mmHg 27%
    12:00 +35°C° 0.1 mm 3 m/s 708 mmHg 29%
    13:00 +34°C° 0.1 mm 5 m/s 708 mmHg 30%
    14:00 +34°C° 0.1 mm 7 m/s 707 mmHg 31%
    15:00 +33°C° 0.2 mm 6 m/s 707 mmHg 34%
    16:00 +32°C° 0.2 mm 5 m/s 707 mmHg 37%
    17:00 +30°C° 0.2 mm 3 m/s 707 mmHg 40%
    18:00 +30°C° 0.1 mm 3 m/s 707 mmHg 41%
    19:00 +30°C° 0.1 mm 2 m/s 707 mmHg 42%
    20:00 +30°C° 0.1 mm 1 m/s 707 mmHg 43%
    21:00 +29°C° 0 mm 1 m/s 708 mmHg 44%
    22:00 +27°C° 0 mm 0 m/s 708 mmHg 46%
    23:00 +27°C° 0 mm 0 m/s 708 mmHg 48%

    31 Maio, Domingo

    Tempo Temperatura Precipitação Vento Pressão Humidade
    00:00 +26°C° 0 mm 0 m/s 707 mmHg 49%
    01:00 +26°C° 0 mm 0 m/s 707 mmHg 50%
    02:00 +25°C° 0 mm 0 m/s 707 mmHg 51%
    03:00 +25°C° 0 mm 0 m/s 707 mmHg 52%
    04:00 +25°C° 0 mm 0 m/s 707 mmHg 52%
    05:00 +25°C° 0 mm 0 m/s 707 mmHg 53%
    06:00 +26°C° 0.1 mm 0 m/s 707 mmHg 51%
    07:00 +26°C° 0.1 mm 0 m/s 708 mmHg 48%
    08:00 +27°C° 0.1 mm 0 m/s 708 mmHg 46%
    09:00 +30°C° 0.1 mm 1 m/s 708 mmHg 43%
    10:00 +31°C° 0.1 mm 2 m/s 709 mmHg 41%
    11:00 +33°C° 0.1 mm 4 m/s 709 mmHg 38%
    12:00 +33°C° 0.1 mm 5 m/s 709 mmHg 38%
    13:00 +33°C° 0.1 mm 6 m/s 708 mmHg 38%
    14:00 +33°C° 0.1 mm 7 m/s 708 mmHg 37%
    15:00 +33°C° 0 mm 6 m/s 708 mmHg 39%
    16:00 +32°C° 0 mm 5 m/s 708 mmHg 41%
    17:00 +30°C° 0 mm 5 m/s 707 mmHg 42%
    18:00 +30°C° 0 mm 4 m/s 707 mmHg 45%
    19:00 +29°C° 0 mm 3 m/s 707 mmHg 48%
    20:00 +28°C° 0 mm 2 m/s 707 mmHg 51%
    21:00 +28°C° 0 mm 2 m/s 707 mmHg 52%
    22:00 +27°C° 0 mm 1 m/s 708 mmHg 54%
    23:00 +25°C° 0 mm 0 m/s 708 mmHg 56%

    1 Junho, Segunda-feira

    Tempo Temperatura Precipitação Vento Pressão Humidade
    00:00 +27°C° 0.1 mm 1 m/s 708 mmHg 57%
    01:00 +26°C° 0.1 mm 1 m/s 708 mmHg 59%
    02:00 +26°C° 0.1 mm 1 m/s 708 mmHg 60%
    03:00 +25°C° 0 mm 1 m/s 708 mmHg 62%
    04:00 +23°C° 0 mm 0 m/s 708 mmHg 64%
    05:00 +23°C° 0 mm 0 m/s 708 mmHg 65%
    06:00 +24°C° 0 mm 0 m/s 708 mmHg 61%
    07:00 +25°C° 0 mm 0 m/s 708 mmHg 57%
    08:00 +25°C° 0 mm 0 m/s 708 mmHg 53%
    09:00 +29°C° 0 mm 1 m/s 708 mmHg 48%
    10:00 +30°C° 0 mm 1 m/s 708 mmHg 43%
    11:00 +31°C° 0 mm 2 m/s 708 mmHg 38%
    12:00 +34°C° 0 mm 2 m/s 708 mmHg 34%
    13:00 +35°C° 0 mm 2 m/s 708 mmHg 30%
    14:00 +36°C° 0 mm 2 m/s 708 mmHg 25%
    15:00 +36°C° 0 mm 3 m/s 707 mmHg 24%
    16:00 +37°C° 0 mm 4 m/s 707 mmHg 23%
    17:00 +37°C° 0 mm 5 m/s 707 mmHg 22%
    18:00 +36°C° 0 mm 4 m/s 707 mmHg 27%
    19:00 +34°C° 0 mm 4 m/s 707 mmHg 31%
    20:00 +33°C° 0 mm 3 m/s 707 mmHg 36%
    21:00 +31°C° 0 mm 3 m/s 707 mmHg 39%
    22:00 +30°C° 0 mm 2 m/s 708 mmHg 42%
    23:00 +30°C° 0 mm 1 m/s 708 mmHg 45%
    Mostrar mais